{"data":{"norad_id":62275,"intl_designator":"2024-237J","name":"STARLINK-11495 [DTC]","alt_names":[],"object_type":"PAYLOAD","status":"ACTIVE","operator":null,"country":"US","launch_date":"2024-12-08","launch_site_code":"AFETR","launch_vehicle":null,"mission":null,"orbit_class":"UNKNOWN","rcs_meters":null,"size_class":null,"mass_kg":null,"dimensions":null,"purposes":["comms"],"wikipedia_slug":null,"has_3d_model":false,"image_url":null,"decayed_at":null,"tle_current":{"epoch":"2026-09-21T10:51:59.781600Z","epoch_age_seconds":95396,"freshness":"FRESH","line1":"1 62275U 24237J   26264.45277525  .00121739  00000+0  93891-3 0  9992","line2":"2 62275  43.0006 317.2479 0003047 284.9314  75.1216 15.70823919103781","mean_motion":15.70823919,"eccentricity":0.0003047,"inclination_deg":43.0006,"raan_deg":317.2479,"arg_perigee_deg":284.9314,"mean_anomaly_deg":75.1216,"bstar":0.00093891,"rev_number":10378,"period_min":91.671636940486,"perigee_km":354.48896807423,"apogee_km":358.59308086234,"semimajor_km":6734.6780244683,"source":"CELESTRAK","updated_at":"2026-09-22T09:00:49.567311Z"}}}